Weather History for Istanbul, Turkey

Change the Weather History Date:

Saturday, October 6, 2012

  Actual Average Record
Temperature  
Mean Temperature 72 °F -  
Max Temperature 79 °F 64 °F 84 °F (2003)
Min Temperature 64 °F 53 °F 43 °F (2013)
Cooling Degree Days 6    
Growing Degree Days 22 (Base 50)    
Moisture  
Dew Point 61 °F    
Average Humidity 69    
Maximum Humidity 100    
Minimum Humidity 43    
Precipitation  
Precipitation 0.00 in - - ()
Sea Level Pressure  
Sea Level Pressure 30.12 in    
Wind  
Wind Speed 7 mph ()    
Max Wind Speed 16 mph    
Max Gust Speed -    
Visibility 5.8 miles    
Events      
Averages and records for this station are not official NWS values.
T = Trace of Precipitation, MM = Missing Value Source: Averaged Metar Reports

Daily Weather History Graph

Daily Weather History Graph

Search for Another Location

Airport:

Trip Planner

Search our weather history database for the weather conditions in past years. The results will help you decide how hot, cold, wet, or windy it might be!

Date:

Astronomy

Oct. 06, 2012 Rise Set
Actual Time 7:06 AM EEST 6:38 PM EEST
Civil Twilight 6:39 AM EEST 7:05 PM EEST
Nautical Twilight 6:07 AM EEST 7:37 PM EEST
Astronomical Twilight 5:35 AM EEST 8:09 PM EEST
Moon 10:34 PM EEST (10/6) 12:48 PM EEST (10/6)
Length of Visible Light 12h 26m
Length of Day
11h 31m
Waning Gibbous, 68% of the Moon is Illuminated
Oct 6
Waning Gibbous
Oct 8
Last Quarter
Oct 15
New
Oct 22
First Quarter
Oct 29
Full

Hourly Weather History & Observations

Time (EEST) Temp. Dew Point Humidity Pressure Visibility Wind Dir Wind Speed Gust Speed Precip Events Conditions
12:20 AM 69.8 °F 62.6 °F 78% 30.12 in - NE 4.6 mph - N/A   Clear
12:50 AM 71.6 °F 62.6 °F 73% 30.12 in - ENE 5.8 mph - N/A   Clear
1:20 AM 69.8 °F 60.8 °F 73% 30.12 in - Variable 4.6 mph - N/A   Clear
1:50 AM 69.8 °F 62.6 °F 78% 30.12 in - Variable 4.6 mph - N/A   Clear
2:20 AM 68.0 °F 62.6 °F 83% 30.12 in - NNE 3.5 mph - N/A   Clear
2:50 AM 68.0 °F 64.4 °F 88% 30.12 in - Variable 4.6 mph - N/A   Clear
3:00 AM 68 °F 64 °F 82% 30.12 in 6 mi NNE 4.6 mph - -  
3:20 AM 66.2 °F 62.6 °F 88% 30.12 in - North 4.6 mph - N/A   Clear
3:50 AM 64.4 °F 64.4 °F 100% 30.12 in - North 4.6 mph - N/A   Clear
4:20 AM 68.0 °F 64.4 °F 88% 30.12 in - North 5.8 mph - N/A   Clear
4:50 AM 68.0 °F 64.4 °F 88% 30.12 in - NNE 6.9 mph - N/A   Clear
5:20 AM 68.0 °F 66.2 °F 94% 30.12 in - NNE 8.1 mph - N/A   Clear
5:50 AM 68.0 °F 66.2 °F 94% 30.12 in 6.2 mi NNE 6.9 mph - N/A   Partly Cloudy
6:20 AM 68.0 °F 66.2 °F 94% 30.12 in 6.2 mi NNE 6.9 mph - N/A   Partly Cloudy
6:50 AM 68.0 °F 66.2 °F 94% 30.12 in 4.3 mi NNE 6.9 mph - N/A   Partly Cloudy
7:20 AM 68.0 °F 66.2 °F 94% 30.15 in 3.7 mi NNE 8.1 mph - N/A   Partly Cloudy
7:50 AM 68.0 °F 66.2 °F 94% 30.15 in 3.7 mi NNE 6.9 mph - N/A   Partly Cloudy
8:20 AM 71.6 °F 64.4 °F 78% 30.15 in 4.3 mi Variable 6.9 mph - N/A   Unknown
8:50 AM 71.6 °F 62.6 °F 73% 30.15 in 4.3 mi Variable 6.9 mph - N/A   Unknown
9:00 AM 71 °F 63 °F 70% 30.17 in 4 mi NE 6.9 mph - -   Mist
9:20 AM 73.4 °F 62.6 °F 69% 30.15 in - Variable 9.2 mph - N/A   Clear
9:50 AM 73.4 °F 60.8 °F 65% 30.15 in 6.2 mi ENE 11.5 mph - N/A   Partly Cloudy
10:20 AM 73.4 °F 59.0 °F 61% 30.15 in 6.2 mi ENE 10.4 mph - N/A   Partly Cloudy
10:50 AM 75.2 °F 57.2 °F 53% 30.15 in 6.2 mi ENE 12.7 mph - N/A   Partly Cloudy
11:20 AM 77.0 °F 57.2 °F 50% 30.15 in 6.2 mi ENE 10.4 mph - N/A   Scattered Clouds
11:50 AM 77.0 °F 57.2 °F 50% 30.15 in 6.2 mi ENE 11.5 mph - N/A   Scattered Clouds
12:20 PM 77.0 °F 59.0 °F 54% 30.15 in 6.2 mi NNE 12.7 mph - N/A   Scattered Clouds
12:50 PM 77.0 °F 57.2 °F 50% 30.15 in 6.2 mi NNE 13.8 mph - N/A   Scattered Clouds
1:20 PM 78.8 °F 57.2 °F 47% 30.12 in 6.2 mi NE 11.5 mph - N/A   Scattered Clouds
1:50 PM 78.8 °F 57.2 °F 47% 30.12 in 6.2 mi NE 13.8 mph - N/A   Scattered Clouds
2:20 PM 78.8 °F 59.0 °F 51% 30.12 in 6.2 mi NE 11.5 mph - N/A   Scattered Clouds
2:50 PM 77.0 °F 59.0 °F 54% 30.12 in 6.2 mi NE 13.8 mph - N/A   Scattered Clouds
3:00 PM 77 °F 59 °F 43% 30.12 in 6 mi NE 13.8 mph - -   Partly Cloudy
3:20 PM 77.0 °F 57.2 °F 50% 30.12 in 6.2 mi NE 15.0 mph - N/A   Scattered Clouds
3:50 PM 77.0 °F 59.0 °F 54% 30.12 in 6.2 mi NE 13.8 mph - N/A   Partly Cloudy
4:20 PM 77.0 °F 57.2 °F 50% 30.09 in 6.2 mi NE 16.1 mph - N/A   Partly Cloudy
4:50 PM 75.2 °F 59.0 °F 57% 30.09 in 6.2 mi NE 13.8 mph - N/A   Partly Cloudy
5:20 PM 75.2 °F 59.0 °F 57% 30.09 in 6.2 mi NE 13.8 mph - N/A   Partly Cloudy
5:50 PM 75.2 °F 59.0 °F 57% 30.09 in 6.2 mi NE 13.8 mph - N/A   Partly Cloudy
6:20 PM 73.4 °F 59.0 °F 61% 30.09 in 6.2 mi NE 11.5 mph - N/A   Scattered Clouds
6:50 PM 73.4 °F 59.0 °F 61% 30.09 in 6.2 mi ENE 9.2 mph - N/A   Partly Cloudy
7:20 PM 71.6 °F 59.0 °F 64% 30.09 in - NE 9.2 mph - N/A   Clear
7:50 PM 71.6 °F 59.0 °F 64% 30.12 in - ENE 11.5 mph - N/A   Clear
8:20 PM 71.6 °F 60.8 °F 69% 30.09 in - ENE 11.5 mph - N/A   Clear
8:50 PM 69.8 °F 60.8 °F 73% 30.09 in - ENE 9.2 mph - N/A   Clear
9:00 PM 70 °F 60 °F 61% 30.12 in 6 mi ENE 9.2 mph - -  
9:20 PM 69.8 °F 60.8 °F 73% 30.09 in - ENE 10.4 mph - N/A   Clear
9:50 PM 69.8 °F 59.0 °F 68% 30.09 in - NE 9.2 mph - N/A   Clear
10:20 PM 69.8 °F 59.0 °F 68% 30.09 in - ENE 6.9 mph - N/A   Clear
10:50 PM 69.8 °F 59.0 °F 68% 30.09 in - NE 6.9 mph - N/A   Clear
11:20 PM 69.8 °F 60.8 °F 73% 30.09 in - NE 6.9 mph - N/A   Clear
11:50 PM 68.0 °F 60.8 °F 78% 30.09 in - ENE 5.8 mph - N/A   Clear